Location: Unspecified
(58.7730°N, 5.8460°E)
Time: 10:07:00
(UTC+02:00)

Cosmos 2058 - Visible Passes

Search period start: 17 April 2014 00:00
Search period end: 27 April 2014 00:00
Orbit: 572 x 595 km, 82.5° (Epoch: 16 April)

Date Brightness Start Highest point End Pass type
(mag) Time Alt. Az. Time Alt. Az. Time Alt. Az.
22 Apr 6.2 04:42:04 10° E 04:43:17 11° ENE 04:44:30 10° ENE visible
23 Apr 5.9 04:47:00 10° ESE 04:49:16 14° E 04:51:33 10° NE visible
24 Apr 5.8 04:52:24 10° SE 04:55:17 18° E 04:58:11 10° NE visible
25 Apr 5.5 04:57:59 10° SE 05:01:19 23° E 05:04:39 10° NE visible
26 Apr 5.1 05:03:42 10° SSE 05:07:22 29° E 05:11:02 10° NNE visible
